STARLINK-1394, 45679

Orbit data source: Space-Track

STARLINK-1394, 45679 is a payload satellite owned by SpaceX/Seattle (US) in LEO that was launched on Thu, 04 Jun 2020 UTC via an FALCON 9 launch vehicle from the Air Force Eastern Test Range (AFETR). Payload-class satellites include a variety of spacecraft equipped with specific instruments for various scientific and technological missions. These include communications satellites like Starlink; space stations such as the ISS; scientific satellites like the Hubble; Earth observation satellites from companies like Planet Labs, Umbra, and HawkEye 360; GPS; miniature CubeSats for education and research; and military/defense satellites.

Loading next visibility...
Identifier
45679, 2020-035Y
Orbit
LEO
Country
Flag of USUS
Related business
Manufacturer
SpaceX/Seattle
Mission
Partially operational Commercial Communications
Bus & Motor
STARLINK, Unknown motor
Mass
260 kg wet, ~248 kg dry
Launch date (UTC)
2020-06-04 (6 years ago)
Launch vehicle
FALCON 9
Launch site
Air Force Eastern Test Range (AFETR)
Object type
Payload
Rocket body
Debris
Shape & HBR
Box + 1 Pan, 10.1 m
Radar Cross Section
13.562 m², Large (>1 m²)

Expand to show TLE details & history
Last TLE update: 12 hours ago

TLE from 12 hours ago
0 STARLINK-1394
1 45679U 20035Y   26118.83218858  .00104628  00000-0  13181-2 0  9999
2 45679  53.0434 154.3381 0008624  10.0678 350.0505 15.58789532326955
Epoch: 2026-04-28T19:58Z
TLE epoch observation values (Epoch: 2026-04-28T19:58:21.093Z)
Latitude
-0°
Longitude
-2.05163°
Altitude
386.308 km
Speed
7.683 km/s
True Right ascension
10h 17m 21s
True Declination
0° 00' 00"
Sunlit
Object was in full shadow at epoch
Visualization orbit readout
Latitude
Unknown
Longitude
Unknown
Altitude
Unknown
Speed
Unknown
Apparent Right ascension
Unknown
Apparent Declination
Unknown
Sunlit
N/A
Visualization observer readout
Local Sidereal Time
15:30:24
Azimuth
Unknown
Elevation
Unknown
Doppler factor
Unknown
Orbital elements
Apogee altitude
397.276 km
Perigee altitude
385.6 km
Semi-major axis
6,769.575 km
Eccentricity
0.00086
Inclination
53.0434°
RAAN
154.3381°
Arg. of periapsis
10.0678°
True anomaly
350.03341°
Mean anomaly
350.0505°
Eccentric anomaly
350.04196°
Mean motion
3.89674 °/min
Orbital period
92.38 mins
BSTAR
0.0013181
Loading maneuver chart data...
Computing Atmospheric mass density...

Documentation

Showing up to 5 results
|